QPF
0.00 0.00 0.00 0.00 0.00 0.00 0.00 0.00 0.00 0.00 0.00 0.00 0.00 0.00 0.00 0.00 0.00 0.00 0.00 0.00 0.00 0.00 0.00 0.00 0.00 0.00 0.00 0.00 0.00 0.04 0.06 0.01
0.00 0.00 0.00 0.00 0.00 0.00 0.00 0.00 0.00 0.00 0.00 0.00 0.00 0.00 0.00 0.02 0.02 0.02 0.01 0.00 0.00 0.00 0.00 0.00 0.00 0.00 0.00 0.00 0.01 0.01 0.05 0.04
0.00 0.00 0.00 0.00 0.00 0.00 0.00 0.00 0.00 0.00 0.00 0.00 0.00 0.00 0.02 0.07 0.09 0.05 0.01 0.01 0.01 0.00 0.00 0.00 0.00 0.01 0.01 0.01 0.03 0.05 0.05 0.10
0.00 0.00 0.00 0.00 0.00 0.00 0.00 0.00 0.00 0.00 0.00 0.00 0.02 0.02 0.09 0.13 0.10 0.15 0.13 0.16 0.08 0.07 0.04 0.01 0.02 0.03 0.01 0.01 0.03 0.08 0.08 0.07
0.00 0.00 0.00 0.00 0.00 0.00 0.00 0.00 0.00 0.00 0.00 0.01 0.04 0.02 0.01 0.00 0.00 0.01 0.06 0.15 0.22 0.26 0.19 0.13 0.08 0.06 0.03 0.03 0.10 0.13 0.14 0.05
0.00 0.00 0.00 0.00 0.00 0.00 0.00 0.00 0.00 0.00 0.00 0.03 0.04 0.10 0.15 0.07 0.05 0.01 0.00 0.02 0.07 0.11 0.17 0.17 0.09 0.07 0.04 0.03 0.03 0.05 0.05 0.03
0.00 0.00 0.00 0.00 0.00 0.00 0.00 0.02 0.03 0.03 0.05 0.07 0.08 0.08 0.08 0.04 0.09 0.14 0.10 0.03 0.02 0.00 0.01 0.02 0.03 0.04 0.02 0.01 0.01 0.02 0.04 0.04
0.00 0.00 0.00 0.00 0.00 0.01 0.04 0.05 0.07 0.12 0.15 0.13 0.12 0.09 0.08 0.12 0.11 0.08 0.09 0.10 0.06 0.03 0.02 0.03 0.03 0.02 0.01 0.02 0.02 0.01 0.01 0.02
0.00 0.01 0.02 0.02 0.03 0.06 0.09 0.08 0.09 0.11 0.10 0.07 0.07 0.02 0.00 0.02 0.12 0.06 0.00 0.01 0.02 0.01 0.00 0.00 0.02 0.02 0.01 0.02 0.02 0.02 0.01 0.02
0.06 0.11 0.08 0.06 0.05 0.07 0.12 0.10 0.07 0.06 0.04 0.01 0.01 0.00 0.00 0.00 0.00 0.00 0.00 0.00 0.00 0.00 0.00 0.00 0.01 0.02 0.02 0.01 0.01 0.02 0.02 0.01
0.15 0.16 0.16 0.10 0.07 0.05 0.06 0.09 0.07 0.03 0.01 0.00 0.00 0.00 0.00 0.00 0.00 0.00 0.00 0.00 0.00 0.00 0.00 0.00 0.00 0.02 0.02 0.03 0.03 0.02 0.02 0.01
0.23 0.26 0.26 0.19 0.06 0.02 0.01 0.02 0.05 0.03 0.01 0.00 0.00 0.00 0.00 0.00 0.00 0.00 0.00 0.00 0.00 0.00 0.00 0.00 0.00 0.00 0.01 0.02 0.01 0.01 0.01 0.02
0.31 0.38 0.56 0.67 0.39 0.10 0.01 0.00 0.00 0.00 0.00 0.00 0.00 0.00 0.00 0.00 0.00 0.00 0.00 0.00 0.00 0.00 0.00 0.00 0.00 0.01 0.01 0.03 0.04 0.02 0.01 0.00
0.38 0.34 0.48 0.98 0.82 0.47 0.14 0.06 0.01 0.00 0.00 0.00 0.00 0.00 0.00 0.00 0.00 0.00 0.00 0.00 0.00 0.00 0.00 0.00 0.00 0.00 0.02 0.02 0.03 0.04 0.02 0.01
0.16 0.15 0.24 0.66 0.69 0.59 0.29 0.15 0.06 0.02 0.00 0.00 0.00 0.00 0.00 0.00 0.00 0.00 0.00 0.00 0.00 0.00 0.00 0.00 0.00 0.00 0.00 0.02 0.04 0.06 0.03 0.02
0.05 0.04 0.04 0.17 0.21 0.13 0.09 0.06 0.01 0.00 0.00 0.00 0.00 0.00 0.00 0.00 0.00 0.00 0.00 0.00 0.00 0.00 0.00 0.00 0.00 0.00 0.00 0.01 0.01 0.05 0.10 0.13
0.00 0.00 0.00 0.00 0.02 0.03 0.01 0.00 0.00 0.00 0.00 0.00 0.00 0.00 0.00 0.00 0.00 0.00 0.00 0.00 0.00 0.00 0.00 0.00 0.00 0.00 0.00 0.02 0.02 0.01 0.04 0.09
0.00 0.00 0.00 0.00 0.00 0.00 0.01 0.00 0.00 0.00 0.00 0.00 0.00 0.00 0.00 0.00 0.00 0.00 0.00 0.00 0.00 0.00 0.00 0.00 0.00 0.00 0.00 0.00 0.02 0.01 0.02 0.07
0.00 0.00 0.00 0.00 0.00 0.00 0.00 0.00 0.00 0.00 0.00 0.00 0.00 0.00 0.00 0.00 0.00 0.00 0.00 0.00 0.00 0.00 0.00 0.00 0.00 0.00 0.00 0.00 0.00 0.00 0.02 0.04
MSLP
1007.78 1007.49 1007.17 1006.95 1006.72 1006.69 1006.62 1006.66 1006.43 1006.66 1007.00 1007.69 1008.26 1008.57 1008.68 1008.82 1009.23 1009.63 1010.28 1010.90 1011.21 1011.39 1011.95 1012.66 1013.25 1014.04 1014.37 1014.81 1015.43 1016.22 1016.59 1017.09
1008.58 1008.09 1007.75 1007.27 1006.84 1006.71 1006.42 1006.31 1005.85 1006.08 1006.29 1006.60 1007.12 1007.09 1007.44 1007.92 1008.48 1009.29 1010.21 1010.26 1010.74 1011.01 1011.53 1012.08 1012.73 1013.21 1013.77 1014.27 1015.01 1015.71 1016.29 1016.79
1009.05 1008.71 1008.12 1007.60 1007.00 1006.41 1006.01 1005.60 1005.38 1005.40 1005.51 1005.16 1005.46 1005.86 1006.60 1007.29 1008.17 1008.90 1009.41 1010.19 1010.27 1010.65 1010.98 1011.45 1011.97 1012.69 1013.24 1013.65 1014.16 1014.78 1015.50 1015.94
1009.70 1008.59 1008.26 1007.75 1006.79 1006.14 1005.51 1004.94 1004.67 1004.35 1004.15 1004.81 1005.21 1005.83 1006.49 1006.91 1007.20 1007.85 1008.46 1009.27 1010.13 1010.20 1010.66 1011.22 1011.69 1012.30 1012.57 1012.82 1013.39 1013.61 1014.17 1014.99
1010.35 1009.48 1008.17 1007.24 1006.35 1005.97 1005.18 1004.45 1003.86 1003.49 1003.52 1003.87 1004.16 1004.32 1005.03 1005.37 1005.86 1006.27 1006.83 1007.10 1007.97 1008.65 1010.26 1010.60 1011.34 1011.76 1012.09 1012.07 1012.61 1012.91 1013.27 1013.75
1011.20 1009.96 1008.91 1007.58 1006.51 1005.17 1004.63 1003.89 1003.26 1002.67 1002.66 1003.09 1003.80 1004.28 1004.90 1005.38 1005.79 1006.56 1006.21 1006.81 1007.11 1007.55 1008.76 1009.28 1010.43 1011.10 1011.28 1011.48 1011.75 1012.36 1012.73 1012.78
1011.84 1010.55 1009.13 1007.38 1006.16 1005.20 1004.40 1003.98 1003.54 1003.28 1002.96 1003.22 1003.58 1003.93 1004.63 1004.45 1005.49 1005.85 1007.36 1006.95 1006.84 1007.54 1007.06 1008.64 1008.89 1009.72 1010.38 1010.60 1011.01 1011.58 1012.05 1012.12
1013.23 1011.71 1008.83 1007.19 1006.48 1005.67 1005.40 1004.96 1004.66 1004.44 1004.10 1004.18 1004.23 1003.96 1003.90 1004.54 1006.07 1006.28 1007.21 1007.12 1007.00 1007.51 1007.36 1008.02 1008.07 1008.65 1009.41 1009.77 1010.16 1010.53 1011.02 1011.36
1014.68 1013.53 1011.97 1010.17 1008.76 1007.28 1006.40 1006.32 1006.20 1005.84 1005.56 1005.33 1005.33 1004.06 1003.89 1004.50 1006.57 1007.40 1008.00 1007.51 1007.35 1007.58 1007.42 1007.60 1007.76 1008.01 1008.55 1008.89 1009.32 1009.56 1010.07 1010.42
1015.78 1014.95 1014.13 1012.76 1011.00 1009.91 1009.02 1007.96 1007.60 1007.67 1006.94 1006.49 1006.67 1005.97 1005.36 1007.44 1007.98 1007.56 1008.16 1007.98 1007.88 1007.59 1007.38 1007.36 1007.42 1007.65 1007.72 1007.95 1008.33 1008.53 1009.12 1009.48
1017.23 1016.42 1015.64 1014.24 1013.08 1011.92 1010.99 1010.03 1009.30 1008.50 1007.74 1007.50 1007.32 1006.95 1006.60 1006.93 1007.42 1008.29 1008.10 1008.32 1008.13 1007.80 1007.40 1007.20 1007.10 1007.17 1007.14 1007.40 1007.45 1007.69 1008.06 1008.39
1018.57 1018.44 1017.04 1016.17 1014.30 1013.83 1013.24 1011.89 1010.90 1010.15 1008.40 1008.60 1007.93 1008.22 1007.99 1008.01 1008.03 1008.09 1008.82 1008.77 1008.53 1007.91 1007.91 1007.39 1007.02 1006.84 1006.78 1006.83 1006.61 1006.83 1007.18 1007.48
1019.53 1019.06 1018.24 1017.28 1016.49 1015.22 1015.38 1013.52 1013.48 1012.00 1010.35 1009.48 1008.94 1009.30 1009.30 1008.55 1009.14 1009.56 1009.70 1009.12 1008.48 1008.16 1007.87 1007.64 1007.21 1006.64 1006.48 1006.29 1006.10 1006.20 1006.39 1006.64
1019.90 1019.44 1018.94 1018.03 1017.74 1016.51 1015.89 1015.13 1014.41 1012.90 1012.46 1011.14 1010.52 1010.14 1010.09 1010.49 1010.11 1010.07 1009.54 1009.17 1008.79 1008.72 1008.45 1007.91 1007.31 1007.05 1006.54 1005.93 1005.62 1005.67 1005.60 1005.76
1020.31 1020.12 1019.81 1019.21 1018.59 1018.02 1016.62 1015.91 1015.16 1014.67 1013.30 1011.81 1011.53 1011.27 1010.86 1011.02 1010.72 1010.05 1010.27 1009.78 1009.19 1009.02 1008.96 1008.45 1008.00 1007.16 1006.62 1005.96 1005.35 1005.01 1004.89 1004.84
1020.61 1020.63 1020.37 1019.73 1019.06 1018.71 1017.52 1016.05 1016.69 1016.29 1015.19 1014.37 1013.16 1012.73 1012.20 1012.19 1011.58 1011.10 1010.45 1010.13 1009.89 1009.70 1009.24 1008.80 1008.09 1007.33 1006.75 1006.76 1006.07 1004.88 1004.55 1004.51
1021.35 1020.94 1020.70 1020.48 1019.89 1019.46 1018.96 1018.25 1018.20 1017.27 1016.02 1015.30 1014.68 1013.73 1012.92 1012.29 1012.19 1011.52 1011.06 1010.59 1010.35 1010.07 1009.76 1008.97 1008.08 1007.57 1007.27 1006.99 1006.82 1005.78 1004.29 1004.21
1021.96 1021.72 1021.45 1020.83 1020.46 1020.23 1019.32 1018.52 1017.43 1016.60 1016.45 1016.12 1014.66 1013.52 1013.27 1012.95 1012.80 1012.04 1011.42 1010.94 1010.58 1010.44 1009.87 1009.00 1008.04 1007.49 1007.12 1006.78 1006.48 1005.80 1004.57 1003.49
1022.31 1021.94 1021.70 1021.26 1020.94 1020.26 1019.33 1018.53 1017.74 1017.33 1017.33 1016.63 1015.14 1014.28 1014.17 1013.66 1013.05 1012.31 1011.75 1011.49 1011.09 1010.53 1009.73 1008.96 1007.98 1007.11 1006.99 1006.77 1006.40 1005.67 1004.68 1003.45
Thickness
5663 5665 5669 5672 5675 5675 5677 5678 5684 5686 5686 5683 5682 5682 5686 5687 5684 5680 5675 5671 5671 5670 5668 5662 5657 5651 5650 5649 5645 5639 5636 5632
5647 5652 5655 5660 5664 5663 5667 5670 5677 5677 5676 5676 5674 5681 5684 5682 5680 5670 5662 5665 5663 5662 5660 5658 5653 5651 5647 5645 5642 5636 5632 5628
5631 5634 5640 5645 5652 5657 5662 5668 5670 5671 5672 5679 5679 5678 5677 5673 5668 5662 5658 5652 5657 5656 5654 5653 5650 5645 5640 5641 5640 5636 5631 5629
5609 5621 5625 5629 5639 5646 5654 5661 5664 5668 5674 5669 5667 5665 5662 5660 5664 5659 5655 5649 5647 5644 5645 5642 5641 5636 5636 5639 5637 5636 5632 5628
5590 5599 5612 5619 5629 5635 5644 5652 5659 5664 5667 5664 5662 5664 5659 5661 5663 5661 5656 5657 5654 5648 5636 5634 5631 5629 5629 5635 5635 5633 5631 5630
5570 5580 5589 5603 5613 5627 5635 5643 5650 5656 5659 5658 5654 5653 5650 5649 5648 5643 5648 5645 5647 5647 5639 5622 5626 5623 5625 5630 5633 5629 5628 5630
5547 5559 5571 5586 5602 5612 5624 5628 5633 5637 5641 5643 5644 5642 5639 5643 5636 5638 5623 5630 5635 5635 5641 5629 5631 5626 5622 5626 5629 5626 5625 5627
5516 5527 5555 5571 5582 5591 5598 5604 5607 5611 5618 5623 5625 5628 5632 5629 5620 5620 5609 5610 5618 5620 5626 5622 5626 5624 5621 5624 5625 5625 5625 5624
5479 5486 5505 5521 5536 5558 5570 5576 5581 5588 5592 5600 5603 5607 5623 5620 5605 5593 5595 5605 5609 5611 5615 5616 5617 5620 5619 5621 5621 5623 5623 5624
5447 5451 5460 5472 5490 5512 5529 5545 5553 5558 5567 5576 5580 5593 5601 5585 5582 5588 5584 5591 5596 5602 5606 5607 5610 5611 5615 5618 5619 5623 5620 5621
5430 5435 5437 5449 5459 5474 5491 5508 5520 5534 5547 5554 5562 5571 5578 5581 5580 5575 5577 5578 5585 5590 5595 5599 5602 5606 5610 5611 5616 5619 5619 5620
5414 5410 5417 5425 5442 5449 5461 5478 5494 5494 5525 5531 5545 5549 5557 5560 5564 5566 5564 5567 5571 5579 5581 5587 5592 5598 5602 5604 5612 5616 5616 5618
5400 5403 5404 5410 5414 5426 5430 5454 5460 5472 5497 5517 5528 5530 5536 5545 5544 5545 5545 5553 5561 5566 5570 5575 5580 5588 5594 5600 5605 5609 5612 5613
5396 5398 5399 5403 5403 5406 5417 5430 5443 5464 5477 5495 5507 5514 5520 5520 5527 5531 5537 5544 5549 5552 5555 5561 5568 5574 5583 5593 5600 5603 5607 5609
5387 5388 5389 5393 5394 5396 5408 5420 5431 5441 5460 5481 5488 5496 5506 5508 5515 5523 5524 5531 5538 5542 5542 5547 5551 5560 5569 5580 5590 5598 5603 5608
5383 5379 5381 5387 5390 5392 5399 5416 5415 5423 5437 5451 5466 5476 5486 5490 5499 5505 5515 5522 5526 5528 5530 5533 5540 5547 5556 5561 5571 5587 5595 5599
5372 5374 5375 5375 5379 5382 5386 5394 5396 5408 5425 5435 5447 5460 5472 5480 5485 5494 5502 5509 5512 5515 5518 5524 5533 5538 5539 5546 5551 5566 5590 5591
5363 5364 5365 5370 5370 5374 5384 5390 5399 5409 5415 5422 5438 5454 5460 5466 5471 5480 5489 5495 5501 5505 5510 5518 5525 5531 5533 5537 5543 5555 5572 5590
5358 5361 5361 5363 5365 5371 5381 5390 5398 5403 5404 5413 5429 5439 5443 5451 5459 5469 5476 5482 5488 5495 5503 5511 5520 5528 5528 5530 5532 5541 5556 5574